[[{"header":{"parameterUnit":"m.s-1","parameterCategory":1,"la1":30.2991,"la2":30.254,"lo1":-89.0895,"lo2":-89.0444,"dy":0.0017,"dx":0.0017,"nx":28,"ny":28,"refTime":"2025-12-29T03:00:00:Z","depth":0,"parameterNumber":2,"parameterNumberName":"U-component_of_WINDS"},"data":[0,0,0,0,0,0,0,0,0,0,0,0,0,0,0,0,0,0,0,0,0,0,0,0,0,0,0,0,0,0,0,0,0,0,0,0,0,0,0,0,0,0,0,0,0,0,0,0,0,0,0,0,0,0,0,0,0,0,3.1357,3.1357,0,3.1395,3.1395,3.1396,3.1354,3.1353,3.1351,3.135,3.1395,3.1398,3.1401,0,0,0,0,0,0,0,0,0,0,0,0,0,3.1256,3.1258,3.1357,3.1357,3.1358,3.1395,3.1395,3.1396,3.1355,3.1353,3.1351,3.1349,3.1394,3.1398,3.1401,0,0,0,0,0,0,0,0,0,0,0,0,0,3.1298,3.1259,3.1357,3.1341,3.134,3.1394,3.1395,3.1396,3.1355,3.1353,3.135,3.1348,3.1393,3.1397,3.1401,3.1474,0,0,3.1414,3.1415,0,0,0,0,0,0,0,0,3.1296,3.1302,3.1343,3.1343,3.1342,3.1367,3.1376,3.1422,3.1356,3.135,3.135,3.1347,3.1388,3.1393,3.1405,3.1476,3.1478,3.1414,3.1416,3.1418,3.1419,0,0,0,0,0,0,0,3.1293,3.13,3.1372,3.1344,3.1343,3.1335,3.1339,3.1385,3.1382,3.135,3.1347,3.1352,3.1387,3.1401,3.1406,3.1479,3.1414,3.1417,3.142,3.1422,3.1615,3.1617,0,0,0,0,0,0,3.1291,3.1298,3.1371,3.1373,3.1312,3.1339,3.1343,3.1362,3.1381,3.1382,3.1354,3.135,3.1396,3.1401,3.1407,3.1496,3.1418,3.1422,3.1424,3.1612,3.1615,3.1618,0,0,0,0,0,0,3.1289,3.1297,3.1369,3.1335,3.1343,3.1343,3.1365,3.1364,3.1377,3.1384,3.1384,3.1368,3.1394,3.1402,3.1458,3.1497,3.1424,3.1427,3.1609,3.1613,3.1617,3.1672,0,0,0,0,0,0,3.1286,3.1297,3.1323,3.1335,3.1345,3.1417,3.1367,3.1366,3.1384,3.1379,3.1398,3.1399,3.1393,3.1452,3.1462,3.1501,3.1431,3.1605,3.1611,3.1615,3.1666,3.1677,3.1686,0,0,0,0,0,3.1282,3.1338,3.1324,3.1333,3.1377,3.1419,3.1425,3.1415,3.1387,3.1414,3.1419,3.1398,3.1491,3.1458,3.1469,3.151,3.1603,3.1609,3.1615,3.1662,3.1675,3.1686,0,0,0,0,0,0,3.1331,3.1339,3.1324,3.1384,3.1401,3.1412,3.1446,3.1429,3.1455,3.145,3.1439,3.1444,3.1504,3.1512,3.1476,3.1583,3.1543,3.1551,3.1575,3.1587,3.1597,3.1594,3.1434,0,0,0,0,0,3.1349,3.138,3.1386,3.1439,3.1448,3.1446,3.1464,3.1455,3.1472,3.148,3.1489,3.1509,3.1543,3.1565,3.1597,3.1668,3.1673,3.1701,3.1711,3.1719,3.1727,3.1767,3.1781,3.1638,3.1638,3.1638,0,0,3.1386,3.1394,3.1414,3.1449,3.1461,3.1496,3.1452,3.149,3.1517,3.1486,3.154,3.1547,3.1569,3.1634,3.1663,3.1643,3.1767,3.1727,3.1733,3.1737,3.1775,3.1788,3.18,3.1642,3.1642,3.1641,0,0,3.1471,3.1479,3.1525,3.1538,3.1556,3.1554,3.1566,3.1579,3.1583,3.1636,3.1614,3.1647,3.1705,3.1722,3.1738,3.1832,3.1815,3.1843,3.1895,3.1935,3.1946,3.1956,3.1991,3.2004,3.1851,3.1851,3.1851,0,3.1515,3.1565,3.1551,3.1592,3.1609,3.1581,3.1629,3.1643,3.1671,3.1685,3.1662,3.1735,3.1748,3.1817,3.184,3.1853,3.1868,3.1841,3.1945,3.1955,3.1964,3.1998,3.2011,3.1854,3.1854,3.1854,3.1853,0,3.162,3.1655,3.169,3.1716,3.1737,3.1782,3.1777,3.1801,3.1791,3.1793,3.1849,3.1863,3.1898,3.1913,3.1904,3.1982,3.197,3.1946,3.1906,3.1981,3.2013,3.2025,3.1859,3.1858,3.1857,3.1856,0,0,3.1736,3.1755,3.1768,3.1781,3.1799,3.1828,3.1872,3.1904,3.1926,3.1947,3.1986,3.2036,3.2015,3.2033,3.2026,3.2061,3.2137,3.2034,3.2034,3.2054,3.2226,3.2244,3.2259,3.2126,3.2128,3.213,3.2225,0,3.1822,3.1896,3.1887,3.1959,3.1993,3.1968,3.2007,3.2025,3.2028,3.206,3.2064,3.2101,3.2069,3.2081,3.2114,3.2121,3.2172,3.2114,3.2164,3.2166,3.216,3.2275,3.2294,3.2383,3.2237,3.2239,3.2241,0,3.1933,3.1957,3.2032,3.2047,3.2061,3.2096,3.2126,3.2155,3.2176,3.2177,3.2198,3.2186,3.2233,3.2192,3.2259,3.2219,3.224,3.2247,3.225,3.2255,3.2208,3.2285,3.2411,3.2424,3.226,3.2258,3.2257,0,3.2012,3.2063,3.2115,3.2127,3.2145,3.2171,3.2181,3.2198,3.2219,3.2246,3.226,3.2293,3.2312,3.2339,3.2337,3.2306,3.2406,3.2363,3.241,3.241,3.2432,3.2431,3.2564,3.2444,3.2443,3.2443,3.2443,0,3.211,3.2158,3.2151,3.2183,3.2237,3.2226,3.2281,3.2287,3.2304,3.2339,3.232,3.2354,3.2349,3.2384,3.2383,3.244,3.2449,3.2452,3.2451,3.2454,3.2454,3.2468,3.2462,3.2447,3.2446,3.2445,3.2445,0,3.2207,3.2204,3.226,3.2273,3.2278,3.2317,3.233,3.2362,3.2364,3.2409,3.2419,3.2424,3.2464,3.2464,3.2511,3.2511,3.2581,3.2573,3.2573,3.2572,3.2618,3.2614,3.2766,3.2786,3.2652,3.2653,3.2654,0,3.227,3.2306,3.2323,3.2344,3.2355,3.239,3.2411,3.2403,3.2426,3.2453,3.2483,3.2521,3.2551,3.2617,3.2626,3.2663,3.2656,3.2707,3.2662,3.2664,3.2659,3.2657,3.2661,3.2716,3.2718,3.2719,3.272,0,3.2383,3.238,3.2409,3.2439,3.2464,3.2488,3.251,3.2529,3.2524,3.2552,3.2592,3.2615,3.2663,3.2702,3.2737,3.275,3.2736,3.2734,3.2747,3.275,3.2749,3.2752,3.2598,3.273,3.2729,3.2729,3.2728,3.2728,3.2465,3.2497,3.2514,3.2548,3.2564,3.2585,3.2616,3.2622,3.2655,3.2691,3.2686,3.2731,3.2754,3.2799,3.2815,3.2853,3.2835,3.2854,3.2859,3.2863,3.2869,3.2743,3.2859,3.2859,3.2859,3.2858,3.2858,0,3.2578,3.2588,3.262,3.265,3.2678,3.266,3.2684,3.2709,3.2748,3.277,3.28,3.2847,3.2886,3.2898,3.2936,3.2964,3.2958,3.2974,3.2973,3.2976,3.2882,3.2867,3.2978,3.2978,3.2978,3.2978,3.2978,3.2978,3.264,3.2692,3.2692,3.2754,3.2764,3.2807,3.2822,3.2843,3.286,3.2913,3.2944,3.2951,3.297,3.301,3.3045,3.3048,3.3064,3.3083,3.3083,3.2995,3.2983,3.2971,3.2958,3.3086,3.3086,3.3175,3.3176,3.3176]},{"header":{"parameterUnit":"m.s-1","parameterCategory":1,"la1":30.2991,"la2":30.254,"lo1":-89.0895,"lo2":-89.0444,"dy":0.0017,"dx":0.0017,"nx":28,"ny":28,"refTime":"2025-12-29T03:00:00:Z","depth":0,"parameterNumber":3,"parameterNumberName":"V-component_of_WINDS"},"data":[0,0,0,0,0,0,0,0,0,0,0,0,0,0,0,0,0,0,0,0,0,0,0,0,0,0,0,0,0,0,0,0,0,0,0,0,0,0,0,0,0,0,0,0,0,0,0,0,0,0,0,0,0,0,0,0,0,0,2.0858,2.0859,0,2.0964,2.0965,2.0966,2.0979,2.0978,2.0977,2.0976,2.1084,2.1088,2.1092,0,0,0,0,0,0,0,0,0,0,0,0,0,2.0667,2.067,2.0858,2.0859,2.086,2.0964,2.0965,2.0966,2.0979,2.0978,2.0976,2.0975,2.1083,2.1088,2.1092,0,0,0,0,0,0,0,0,0,0,0,0,0,2.0759,2.0671,2.0857,2.0879,2.0882,2.0963,2.0965,2.0967,2.0979,2.0978,2.0976,2.0975,2.1082,2.1087,2.1093,2.116,0,0,2.1111,2.1113,0,0,0,0,0,0,0,0,2.0754,2.0766,2.0874,2.0878,2.0881,2.0956,2.0938,2.1032,2.098,2.0942,2.0976,2.0974,2.1043,2.1052,2.1075,2.1165,2.117,2.1111,2.1115,2.1117,2.1119,0,0,0,0,0,0,0,2.0747,2.0761,2.09,2.0876,2.088,2.0884,2.0895,2.0955,2.1,2.0945,2.0947,2.0959,2.1045,2.107,2.1078,2.1172,2.1111,2.1116,2.112,2.1122,2.1323,2.1325,0,0,0,0,0,0,2.0737,2.0756,2.0896,2.0903,2.0812,2.0888,2.0901,2.0934,2.1,2.1008,2.096,2.0959,2.1061,2.1071,2.1082,2.1166,2.1117,2.1123,2.1126,2.1321,2.1323,2.1325,0,0,0,0,0,0,2.0733,2.0749,2.0892,2.083,2.0848,2.0893,2.093,2.0937,2.0962,2.1011,2.1019,2.0978,2.106,2.1074,2.1141,2.117,2.1125,2.1131,2.1319,2.1322,2.1324,2.1333,0,0,0,0,0,0,2.0727,2.0748,2.0773,2.083,2.0851,2.0949,2.0932,2.094,2.0972,2.0971,2.1029,2.1037,2.106,2.1132,2.1147,2.1177,2.1135,2.1317,2.132,2.1324,2.1331,2.1336,2.1341,0,0,0,0,0,2.072,2.0771,2.0775,2.0791,2.0885,2.0951,2.0963,2.0987,2.0974,2.1001,2.1032,2.1035,2.1164,2.1139,2.1155,2.1188,2.1315,2.1319,2.1323,2.1329,2.1335,2.1341,0,0,0,0,0,0,2.0717,2.0779,2.0783,2.0855,2.0897,2.0953,2.0987,2.0993,2.1041,2.1039,2.1067,2.108,2.1146,2.1174,2.1145,2.1257,2.1238,2.1246,2.1237,2.1243,2.1248,2.1241,2.114,0,0,0,0,0,2.0724,2.0772,2.0825,2.0882,2.0903,2.0941,2.0971,2.0986,2.1032,2.105,2.1086,2.113,2.1181,2.1213,2.1262,2.1334,2.1348,2.1365,2.137,2.1374,2.138,2.1422,2.143,2.1339,2.1339,2.1339,0,0,2.074,2.078,2.0809,2.0883,2.0917,2.0967,2.0957,2.1009,2.1047,2.1058,2.1124,2.1152,2.1203,2.1273,2.1306,2.1298,2.1408,2.1379,2.1382,2.1386,2.1427,2.1435,2.1443,2.1342,2.1341,2.1341,0,0,2.0795,2.083,2.0882,2.0918,2.0971,2.0996,2.1008,2.1063,2.1082,2.1149,2.1159,2.1203,2.1289,2.1326,2.1355,2.1424,2.143,2.1439,2.1466,2.1506,2.1513,2.1519,2.1545,2.1554,2.1446,2.1446,2.1446,0,2.0808,2.0883,2.0908,2.0962,2.0994,2.1006,2.106,2.1093,2.1159,2.1182,2.1172,2.128,2.1315,2.1395,2.1412,2.1435,2.1451,2.1433,2.151,2.1517,2.1523,2.1548,2.1557,2.1447,2.1446,2.1446,2.1446,0,2.0898,2.095,2.0986,2.105,2.1086,2.1139,2.1173,2.1207,2.1219,2.1245,2.1313,2.1356,2.1414,2.1434,2.1446,2.1515,2.1509,2.1504,2.1486,2.1532,2.1556,2.1566,2.1448,2.1448,2.1447,2.1447,0,0,2.0953,2.1031,2.1044,2.1074,2.1133,2.1174,2.1228,2.1285,2.1314,2.1359,2.1406,2.1478,2.1475,2.1508,2.1525,2.1559,2.1613,2.1551,2.1552,2.1562,2.1693,2.1697,2.1707,2.1616,2.1618,2.162,2.1689,0,2.1016,2.1112,2.1137,2.1219,2.1268,2.1281,2.1328,2.137,2.1395,2.1441,2.1469,2.1521,2.1511,2.1532,2.1567,2.1599,2.164,2.1594,2.166,2.1662,2.1648,2.172,2.1724,2.1787,2.1698,2.17,2.1701,0,2.1102,2.1149,2.1237,2.1291,2.1312,2.1354,2.1409,2.1452,2.15,2.1516,2.1554,2.1567,2.1624,2.1603,2.1682,2.1651,2.1679,2.1699,2.1702,2.171,2.1685,2.173,2.1808,2.1818,2.1716,2.1714,2.1713,0,2.1135,2.1221,2.1284,2.1309,2.1374,2.1403,2.1431,2.1478,2.1511,2.1559,2.158,2.1634,2.1664,2.1705,2.1732,2.1714,2.181,2.179,2.1826,2.1825,2.1846,2.1844,2.193,2.1862,2.1862,2.1862,2.1862,0,2.1203,2.1256,2.13,2.134,2.14,2.1427,2.1486,2.1515,2.1556,2.1601,2.1615,2.1657,2.1691,2.1737,2.1759,2.1822,2.1835,2.185,2.1856,2.185,2.1848,2.1869,2.1866,2.1865,2.1864,2.1864,2.1863,0,2.125,2.1282,2.1352,2.1408,2.1423,2.1465,2.1513,2.1552,2.1578,2.1635,2.165,2.1691,2.1747,2.1779,2.1849,2.1863,2.1934,2.1936,2.1918,2.192,2.1954,2.1951,2.2057,2.2073,2.1994,2.1995,2.1995,0,2.1292,2.1333,2.1393,2.1425,2.1454,2.1504,2.1538,2.1567,2.1601,2.166,2.1692,2.1748,2.1795,2.1884,2.1921,2.1974,2.1979,2.2013,2.1987,2.198,2.1981,2.1978,2.1983,2.2017,2.2018,2.2019,2.2019,0,2.1362,2.1376,2.1425,2.148,2.152,2.1564,2.1608,2.1633,2.1669,2.1707,2.1765,2.1801,2.1873,2.193,2.1987,2.2016,2.2024,2.2027,2.2038,2.2033,2.2021,2.2029,2.1931,2.2024,2.2024,2.2023,2.2023,2.2023,2.1409,2.1447,2.1495,2.1549,2.1585,2.1626,2.1666,2.1697,2.1746,2.1807,2.1821,2.1882,2.1929,2.2006,2.2037,2.2085,2.2079,2.2095,2.2099,2.2103,2.2105,2.2012,2.2095,2.2095,2.2095,2.2095,2.2095,0,2.1481,2.1513,2.1563,2.1624,2.1667,2.167,2.1719,2.1755,2.1808,2.1852,2.1898,2.1964,2.2019,2.206,2.2116,2.2147,2.2152,2.2161,2.216,2.2166,2.2107,2.2092,2.2156,2.2156,2.2156,2.2156,2.2156,2.2156,2.1524,2.1589,2.1608,2.1691,2.1723,2.1783,2.1811,2.1849,2.1884,2.1957,2.2003,2.203,2.2072,2.2132,2.2183,2.2193,2.2214,2.2222,2.2233,2.2177,2.217,2.2164,2.2151,2.2226,2.2226,2.2289,2.229,2.229]}]]